This is the latest recevied weather packets stored in our database for station/object KF4ERV-4. If no packets are shown the sender has not sent any weather packets the latest 10 day(s).
| Time | Temp. | Humidity | Pressure | Rain* | Wind** | Luminosity | Snow |
|---|---|---|---|---|---|---|---|
| 1778104156 | 16.11° C | 63% | 1014 hPa | 0 mm | - | - | - |
| 1778103933 | 16.11° C | 63% | 1014 hPa | 0 mm | - | - | - |
| 1778103901 | 16.11° C | 63% | 1014 hPa | 0 mm | - | - | - |
| 1778103865 | 16.11° C | 64% | 1014 hPa | 0 mm | - | - | - |
| 1778103593 | 16.11° C | 64% | 1014 hPa | 0 mm | - | - | - |
| 1778103575 | 16.11° C | 63% | 1014 hPa | 0 mm | - | - | - |
| 1778103025 | 16.11° C | 63% | 1014 hPa | 0 mm | - | - | - |
| 1778102993 | 16.11° C | 63% | 1014 hPa | 0 mm | - | - | - |
| 1778102702 | 16.11° C | 63% | 1014 hPa | 0 mm | - | - | - |
| 1778102404 | 16.11° C | 63% | 1014 hPa | 0 mm | - | - | - |
| 1778102097 | 16.67° C | 64% | 1014.1 hPa | 0 mm | - | - | - |
| 1778102095 | 16.67° C | 58% | 1014 hPa | 0 mm | - | - | - |
| 1778101800 | 16.11° C | 62% | 1014.1 hPa | 0 mm | - | - | - |
| 1778101496 | 16.67° C | 59% | 1014 hPa | 0 mm | - | - | - |
| 1778101255 | 16.67° C | 58% | 1014 hPa | 0 mm | - | - | - |
| 1778100965 | 16.67° C | 61% | 1014 hPa | 0 mm | - | - | - |
| 1778100897 | 16.67° C | 61% | 1014 hPa | 0 mm | - | - | - |
| 1778100674 | 16.67° C | 61% | 1014.2 hPa | 0 mm | - | - | - |
| 1778100601 | 16.67° C | 61% | 1014.2 hPa | 0 mm | - | - | - |
| 1778100533 | 16.67° C | 60% | 1015 hPa | 0 mm | - | - | - |
| 1778100385 | 16.67° C | 64% | 1014.1 hPa | 0 mm | - | - | - |
| 1778100293 | 16.67° C | 64% | 1014.1 hPa | 0 mm | - | - | - |
| 1778100095 | 16.67° C | 61% | 1014.7 hPa | 0 mm | - | - | - |
| 1778099994 | 16.67° C | 61% | 1014.7 hPa | 0 mm | - | - | - |
| 1778099805 | 16.67° C | 60% | 1015 hPa | 0 mm | - | - | - |
* Rain latest hour (hover to see other rain measurements)
** Current wind speed in m/s (hover to see current wind gust speed)